Regional Weather Roundup
Issued by NWS

Home | Current Version | Previous Version | Text Only | Print | Product List | Glossary On
Versions: 1 2 3 4 5 6 7 8 9 10 11 12 13 14 15 16 17 18 19 20 21 22 23 24 25 26 27 28 29 30 31 32 33 34 35 36 37 38 39 40 41 42 43 44 45 46 47 48 49 50
000
ASUS43 KMKX 021221
RWRWI

WISCONSIN REGIONAL WEATHER ROUNDUP
NATIONAL WEATHER SERVICE MILWAUKEE/SULLIVAN WI
700 AM CDT TUE SEP 02 2014

NOTE: "FAIR" INDICATES FEW OR NO CLOUDS BELOW 12,000 FEET WITH NO
SIGNIFICANT WEATHER AND/OR OBSTRUCTIONS TO VISIBILITY.

WIZ001-002-006>008-014>016-023>028-021300-
NORTHWEST WISCONSIN

CITY           SKY/WX    TMP DP  RH WIND       PRES   REMARKS
SUPERIOR ARPT  PTCLDY    52  51  97 SW6       29.82R
6HR MIN TEMP:  52; 6HR MAX TEMP:  55;

ASHLAND        MOCLDY    55  52  89 SW6       29.82R
6HR MIN TEMP:  54; 6HR MAX TEMP:  57;

HAYWARD        MOCLDY    51  50  96 CALM      29.85R FOG
6HR MIN TEMP:  50; 6HR MAX TEMP:  54;

SIREN          MOCLDY    52  51  96 CALM      29.86R
6HR MIN TEMP:  52; 6HR MAX TEMP:  58;

RICE LAKE      CLOUDY    56  55  95 CALM      29.87R FOG
6HR MIN TEMP:  55; 6HR MAX TEMP:  58;

LADYSMITH      CLOUDY    56  55  96 CALM      29.87R
6HR MIN TEMP:  54; 6HR MAX TEMP:  57;

EAU CLAIRE     CLOUDY    60  58  92 SW9       29.86R
6HR MIN TEMP:  58; 6HR MAX TEMP:  60;

MENOMONIE      CLOUDY    61  58  92 W5        29.87R
6HR MIN TEMP:  58; 6HR MAX TEMP:  61;

NEW RICHMOND   CLOUDY    58  58  99 SW3       29.87R
6HR MIN TEMP:  57; 6HR MAX TEMP:  61;

OSCEOLA        CLOUDY    56  56 100 CALM      29.88R
6HR MIN TEMP:  56; 6HR MAX TEMP:  60;

$$

WIZ003>005-009-010-017-018-021300-
NORTH CENTRAL WISCONSIN

CITY           SKY/WX    TMP DP  RH WIND       PRES   REMARKS
WOODRUFF       MOCLDY    53  51  95 CALM      29.84R
6HR MIN TEMP:  52; 6HR MAX TEMP:  57;

RHINELANDER    MOCLDY    53  52  96 SW3       29.85R
6HR MIN TEMP:  48; 6HR MAX TEMP:  53;

EAGLE RIVER    MOCLDY    50  50 100 CALM      29.84R
LAND O LAKES   PTCLDY    46  46 100 CALM      29.84R
6HR MIN TEMP:  43; 6HR MAX TEMP:  49;

PHILLIPS       MOCLDY    55  54  97 CALM      29.85R
6HR MIN TEMP:  51; 6HR MAX TEMP:  55;

TOMAHAWK       CLOUDY    51  50  97 CALM      29.85R
6HR MIN TEMP:  45; 6HR MAX TEMP:  51;

MEDFORD        CLOUDY    56  56  97 NW7       29.86R
6HR MIN TEMP:  52; 6HR MAX TEMP:  57;

MERRILL        CLOUDY    51  51 100 CALM      29.85S
6HR MIN TEMP:  47; 6HR MAX TEMP:  52; 6HR PCP:  0.11;

$$

WIZ029-030-035-036-043>047-021300-
CENTRAL WISCONSIN

CITY           SKY/WX    TMP DP  RH WIND       PRES   REMARKS
WAUSAU         PTCLDY    58  56  93 S5        29.84R
6HR MIN TEMP:  54; 6HR MAX TEMP:  59;

MOSINEE        CLEAR     54  54 100 CALM      29.87R
MARSHFIELD     MOCLDY    56  54  93 SW6       29.85S
6HR MIN TEMP:  54; 6HR MAX TEMP:  59;

STEVENS POINT  PTCLDY    51  51  99 CALM      29.86S
6HR MIN TEMP:  50; 6HR MAX TEMP:  56;

WAUPACA        PTCLDY    57  55  95 CALM      29.86R FOG
6HR MIN TEMP:  55; 6HR MAX TEMP:  60;

WAUTOMA        PTCLDY    54  53  96 CALM      29.87S
6HR MIN TEMP:  52; 6HR MAX TEMP:  58;

WISC RAPIDS    PTCLDY    54  54 100 CALM      29.87S
6HR MIN TEMP:  52; 6HR MAX TEMP:  58;

CAMP DOUGLAS   MOCLDY    55  55 100 SE3       29.87R
$$

WIZ011>013-019>022-031-037>040-048>050-021300-
NORTHEAST WISCONSIN

CITY           SKY/WX    TMP DP  RH WIND       PRES   REMARKS
ANTIGO         MOCLDY    52  52 100 CALM      29.86R
6HR MIN TEMP:  47; 6HR MAX TEMP:  54;

STURGEON BAY   CLEAR     61  55  82 W6        29.84S
6HR MIN TEMP:  57; 6HR MAX TEMP:  63;

GREEN BAY      CLEAR     55  55 100 CALM      29.85R
6HR MIN TEMP:  54; 6HR MAX TEMP:  60;

MANITOWOC      CLEAR     61  59  93 W3        29.86R
6HR MIN TEMP:  60; 6HR MAX TEMP:  65;

APPLETON       PTCLDY    59  59 100 W6        29.86R
CLINTONVILLE   PTCLDY    52  52 100 CALM      29.85R
OSHKOSH        CLEAR     61  59  93 SW3       29.86R
6HR MIN TEMP:  59; 6HR MAX TEMP:  64;

$$

WIZ032>034-041-042-053>061-021300-
SOUTHWEST WISCONSIN

CITY           SKY/WX    TMP DP  RH WIND       PRES   REMARKS
LA CROSSE      CLOUDY    62  60  93 S9        29.87R
6HR MIN TEMP:  61; 6HR MAX TEMP:  64;

SPARTA         MOCLDY    53  53  97 CALM      29.88R
6HR MIN TEMP:  51; 6HR MAX TEMP:  56;

VIROQUA        FAIR      59  59 100 SW3       29.90R
6HR MIN TEMP:  56; 6HR MAX TEMP:  60;

BOSCOBEL       FOG       59  58  96 CALM      29.89R VSB<1/4
6HR MIN TEMP:  57; 6HR MAX TEMP:  61;

PRAIRIE DU CHI RAIN      61  60  95 NW7       29.92R
6HR MIN TEMP:  56; 6HR MAX TEMP:  61; 6HR PCP:  0.01;

PLATTEVILLE    FAIR      59  58  97 CALM      29.91R
6HR MIN TEMP:  55; 6HR MAX TEMP:  65;

$$

WIZ056-057-062-063-064-067-068-021300-
SOUTH CENTRAL WISCONSIN

CITY           SKY/WX    TMP DP  RH WIND       PRES   REMARKS
BARABOO/DELLS  CLEAR     58  56  94 CALM      29.88R
LONE ROCK      FOG       61  57  87 CALM      29.90R VSB 1/4
6HR MIN TEMP:  60; 6HR MAX TEMP:  63;

WATERTOWN      CLEAR     56  56 100 CALM      29.88R
6HR MIN TEMP:  54; 6HR MAX TEMP:  62;

MADISON        PTCLDY    58  57  97 CALM      29.88R
6HR MIN TEMP:  56; 6HR MAX TEMP:  66;

MIDDLETON        N/A     55  55 100 CALM      29.89R
6HR MIN TEMP:  55; 6HR MAX TEMP:  65;

MONROE         CLEAR     64  59  82 W5        29.89S
JANESVILLE     FOG       59  57  94 CALM      29.88R VSB 1/4
$$

WIZ051-052-058>065-066-070>072-021300-
SOUTHEAST WISCONSIN

CITY           SKY/WX    TMP DP  RH WIND       PRES   REMARKS
MILWAUKEE      PTCLDY    64  61  90 CALM      29.87S
6HR MIN TEMP:  64; 6HR MAX TEMP:  69;

WAUKESHA       CLEAR     57  57 100 CALM      29.90R
MILWAUKEE/TIMM CLEAR     61  59  94 CALM      29.88R
RACINE         PTCLDY    64  62  93 W5        29.89R
6HR MIN TEMP:  64; 6HR MAX TEMP:  68;

BURLINGTON     FOG       55  55 100 CALM      29.88S VSB<1/4
6HR MIN TEMP:  55; 6HR MAX TEMP:  64;

KENOSHA        PTCLDY    61  61 100 W3        29.88S
6HR MIN TEMP:  60; 6HR MAX TEMP:  67;

FOND DU LAC    CLEAR     60  58  92 MISG      29.87R
6HR MIN TEMP:  56; 6HR MAX TEMP:  63;

SHEBOYGAN      CLEAR     56  56 100 W3        29.87R
6HR MIN TEMP:  55; 6HR MAX TEMP:  62;

WEST BEND      FOG       55  54  94 CALM      29.88R VSB 1/4
JUNEAU         FOG       55  55 100 S3        29.90R VSB 1/4
6HR MIN TEMP:  54; 6HR MAX TEMP:  62;

$$

LSZ147-162-021300-
LAKE SUPERIOR

STATION/POSITION TIME  TEMP    WIND        PRES    WAVE
                       AIR SEA DIR/SP/G            HT/PER
                 (UTC) (F)     (DEG/KT/KT) (MB)    (FT/S)
W MID LAKE BUOY  1150   59 57  250/ 10/ 12 1007.8R   1/ 3
DEVILS ISLAND    1200   61     250/ 15/ 18 1008.7R
PORT WING        1100   56     180/  5/  6 1009.5R
SAXON HARBOR     1100   59     190/  5/  9 1009.1R
$$

LMZ867-665-643>646-021300-
LAKE MICHIGAN

STATION/POSITION TIME  TEMP    WIND        PRES    WAVE
                       AIR SEA DIR/SP/G            HT/PER
                 (UTC) (F)     (DEG/KT/KT) (MB)    (FT/S)
N MID LAKE BUOY  1150   64 65  270/  8/ 10 1009.3R   2/ 6
NORTHPORT PIER   1100   60     270/  4/  5 1009.5R
KEWAUNEE LAKESHO 1100   58     300/  4/  5 1009.4R
SHEBOYGAN LAKESH 1200   63 49  260/ 11/ 11 1011.3R
ATWATER BUOY     1200   65     250/  4/  4 1012.7R
MILWAUKEE LAKESH 1200   68     300/  1/  2   N/A
S MID LAKE BUOY  1150   69 69  300/ 10/ 12 1011.2R   1
KENOSHA   LAKESH 1200   66     270/  6/  7 1011.5R
$$

TC  - TEMPERATURE IN CELSIUS
VSB - VISIBILITY IN STATUTE MILES
WCI - WIND CHILL INDEX
HX  - HEAT INDEX



USA.gov is the U.S. government's official web portal to all federal, state and local government web resources and services.